This is the latest recevied weather packets stored in our database for station/object K7CTM. If no packets are shown the sender has not sent any weather packets the latest 10 day(s).
| Time | Temp. | Humidity | Pressure | Rain* | Wind** | Luminosity | Snow |
|---|---|---|---|---|---|---|---|
| 1777865715 | 17.22° C | 31% | 1018.6 hPa | 0 mm | - | 0 W/m² | - |
| 1777865412 | 17.22° C | 31% | 1018.7 hPa | 0 mm | - | 0 W/m² | - |
| 1777865109 | 17.22° C | 31% | 1018.6 hPa | 0 mm | - | 0 W/m² | - |
| 1777864806 | 16.67° C | 31% | 1018.5 hPa | 0 mm | - | 0 W/m² | - |
| 1777864502 | 16.67° C | 33% | 1018.5 hPa | 0 mm | - | 0 W/m² | - |
| 1777864199 | 16.67° C | 32% | 1018.3 hPa | 0 mm | - | 0 W/m² | - |
| 1777863896 | 16.67° C | 32% | 1018.6 hPa | 0 mm | - | 0 W/m² | - |
| 1777863592 | 16.67° C | 33% | 1018.5 hPa | 0 mm | - | 0 W/m² | - |
| 1777863289 | 17.22° C | 32% | 1018.5 hPa | 0 mm | - | 0 W/m² | - |
| 1777862986 | 17.78° C | 31% | 1018.3 hPa | 0 mm | - | 0 W/m² | - |
| 1777862683 | 17.22° C | 31% | 1018.3 hPa | 0 mm | - | 0 W/m² | - |
| 1777862380 | 17.78° C | 31% | 1018.2 hPa | 0 mm | - | 1 W/m² | - |
| 1777862077 | 18.89° C | 29% | 1018.2 hPa | 0 mm | - | 1 W/m² | - |
| 1777861772 | 19.44° C | 26% | 1018.2 hPa | 0 mm | - | 3 W/m² | - |
| 1777861469 | 20° C | 26% | 1018 hPa | 0 mm | - | 4 W/m² | - |
| 1777861165 | 20° C | 26% | 1018 hPa | 0 mm | - | 7 W/m² | - |
| 1777860863 | 20° C | 27% | 1018 hPa | 0 mm | - | 11 W/m² | - |
| 1777860560 | 20.56° C | 26% | 1017.8 hPa | 0 mm | - | 15 W/m² | - |
| 1777860257 | 20.56° C | 25% | 1018 hPa | 0 mm | - | 19 W/m² | - |
| 1777859953 | 20.56° C | 25% | 1017.9 hPa | 0 mm | - | 23 W/m² | - |
| 1777859649 | 20.56° C | 25% | 1017.9 hPa | 0 mm | - | 26 W/m² | - |
| 1777859345 | 21.11° C | 24% | 1017.9 hPa | 0 mm | - | 30 W/m² | - |
| 1777859041 | 21.11° C | 24% | 1017.9 hPa | 0 mm | - | 35 W/m² | - |
| 1777858739 | 21.67° C | 25% | 1018 hPa | 0 mm | - | 40 W/m² | - |
| 1777858437 | 21.67° C | 24% | 1018 hPa | 0 mm | - | 45 W/m² | - |
* Rain latest hour (hover to see other rain measurements)
** Current wind speed in m/s (hover to see current wind gust speed)